When you browse on this site, cookies collect data to enhance your experience and personalize the content and advertising you see.
Visit our Privacy Policy to learn more. By continuing to use the site, you agree to this use of cookies and data.

Hourly Weather Escuintla

Today, 6 August, Thursday

Time Temperature Precipitation Wind Pressure Humidity
00:00 +25°C° 0 mm 1 mps 729 mmHg 96%
01:00 +25°C° 0.5 mm 1 mps 729 mmHg 95%
02:00 +25°C° 0.5 mm 1 mps 728 mmHg 94%
03:00 +25°C° 0.5 mm 1 mps 728 mmHg 93%
04:00 +24°C° 0 mm 1 mps 728 mmHg 93%
05:00 +24°C° 0 mm 1 mps 728 mmHg 92%
06:00 +24°C° 0 mm 2 mps 728 mmHg 90%
07:00 +26°C° 0 mm 1 mps 728 mmHg 84%
08:00 +28°C° 0 mm 1 mps 729 mmHg 78%
09:00 +29°C° 0 mm 1 mps 729 mmHg 73%
10:00 +30°C° 0.2 mm 1 mps 729 mmHg 71%
11:00 +31°C° 0.2 mm 1 mps 729 mmHg 69%
12:00 +32°C° 0.2 mm 1 mps 729 mmHg 68%
13:00 +31°C° 0.8 mm 1 mps 728 mmHg 72%
14:00 +31°C° 0.8 mm 1 mps 727 mmHg 77%
15:00 +30°C° 0.8 mm 1 mps 727 mmHg 81%
16:00 +29°C° 2.2 mm 1 mps 727 mmHg 86%
17:00 +28°C° 2.2 mm 1 mps 727 mmHg 90%
18:00 +25°C° 2.2 mm 0 mps 727 mmHg 95%
19:00 +26°C° 2.5 mm 1 mps 728 mmHg 95%
20:00 +26°C° 2.5 mm 1 mps 728 mmHg 95%
21:00 +26°C° 2.5 mm 1 mps 729 mmHg 95%
22:00 +25°C° 1.4 mm 1 mps 729 mmHg 96%
23:00 +25°C° 1.4 mm 1 mps 729 mmHg 96%

Tomorrow, 7 August, Friday

Time Temperature Precipitation Wind Pressure Humidity
00:00 +25°C° 1.4 mm 1 mps 729 mmHg 96%
01:00 +25°C° 0.6 mm 1 mps 729 mmHg 96%
02:00 +25°C° 0.6 mm 1 mps 728 mmHg 96%
03:00 +22°C° 0.6 mm 0 mps 728 mmHg 95%
04:00 +24°C° 0.4 mm 1 mps 728 mmHg 95%
05:00 +24°C° 0.4 mm 1 mps 728 mmHg 95%
06:00 +24°C° 0.4 mm 1 mps 728 mmHg 95%
07:00 +25°C° 0.1 mm 1 mps 729 mmHg 94%
08:00 +25°C° 0.1 mm 1 mps 729 mmHg 94%
09:00 +26°C° 0.1 mm 1 mps 730 mmHg 93%
10:00 +27°C° 0.4 mm 1 mps 729 mmHg 89%
11:00 +29°C° 0.4 mm 1 mps 729 mmHg 84%
12:00 +30°C° 0.4 mm 1 mps 729 mmHg 79%
13:00 +30°C° 0.8 mm 1 mps 729 mmHg 80%
14:00 +30°C° 0.8 mm 1 mps 728 mmHg 81%
15:00 +30°C° 0.8 mm 1 mps 728 mmHg 82%
16:00 +29°C° 0.7 mm 1 mps 728 mmHg 85%
17:00 +28°C° 0.7 mm 1 mps 728 mmHg 89%
18:00 +25°C° 0.7 mm 0 mps 728 mmHg 93%
19:00 +25°C° 1.2 mm 0 mps 729 mmHg 93%
20:00 +24°C° 1.2 mm 0 mps 729 mmHg 93%
21:00 +25°C° 1.2 mm 1 mps 730 mmHg 93%
22:00 +25°C° 0.5 mm 1 mps 730 mmHg 93%
23:00 +25°C° 0.5 mm 1 mps 730 mmHg 93%

Day after tomorrow, 8 August, Saturday

Time Temperature Precipitation Wind Pressure Humidity
00:00 +25°C° 0.5 mm 1 mps 730 mmHg 93%
01:00 +25°C° 0.1 mm 1 mps 730 mmHg 92%
02:00 +25°C° 0.1 mm 1 mps 729 mmHg 91%
03:00 +24°C° 0.1 mm 1 mps 729 mmHg 91%
04:00 +24°C° 0 mm 1 mps 729 mmHg 90%
05:00 +24°C° 0 mm 2 mps 729 mmHg 89%
06:00 +24°C° 0 mm 2 mps 729 mmHg 88%
07:00 +26°C° 0 mm 1 mps 730 mmHg 82%
08:00 +28°C° 0 mm 1 mps 730 mmHg 76%
09:00 +30°C° 0 mm 1 mps 730 mmHg 70%
10:00 +31°C° 0.5 mm 1 mps 730 mmHg 72%
11:00 +31°C° 0.5 mm 1 mps 730 mmHg 74%
12:00 +31°C° 0.5 mm 1 mps 730 mmHg 76%
13:00 +31°C° 2.4 mm 1 mps 729 mmHg 80%
14:00 +30°C° 2.4 mm 1 mps 729 mmHg 85%
15:00 +29°C° 2.4 mm 1 mps 728 mmHg 90%
16:00 +29°C° 2.6 mm 1 mps 728 mmHg 91%
17:00 +28°C° 2.6 mm 1 mps 729 mmHg 93%
18:00 +27°C° 2.6 mm 1 mps 729 mmHg 94%
19:00 +26°C° 1.4 mm 1 mps 729 mmHg 95%
20:00 +26°C° 1.4 mm 1 mps 730 mmHg 95%
21:00 +25°C° 1.4 mm 1 mps 731 mmHg 96%
22:00 +25°C° 0.5 mm 2 mps 731 mmHg 96%
23:00 +25°C° 0.5 mm 2 mps 731 mmHg 95%

9 August, Sunday

Time Temperature Precipitation Wind Pressure Humidity
00:00 +24°C° 0.5 mm 2 mps 730 mmHg 95%
01:00 +24°C° 0.1 mm 2 mps 730 mmHg 94%
02:00 +24°C° 0.1 mm 2 mps 729 mmHg 93%
03:00 +24°C° 0.1 mm 2 mps 729 mmHg 92%
04:00 +24°C° 0 mm 2 mps 729 mmHg 90%
05:00 +24°C° 0 mm 2 mps 729 mmHg 89%
06:00 +24°C° 0 mm 2 mps 729 mmHg 87%
07:00 +26°C° 0 mm 2 mps 729 mmHg 82%
08:00 +28°C° 0 mm 1 mps 730 mmHg 77%
09:00 +30°C° 0 mm 1 mps 731 mmHg 72%
10:00 +29°C° 0.4 mm 1 mps 730 mmHg 76%
11:00 +29°C° 0.4 mm 1 mps 730 mmHg 80%
12:00 +29°C° 0.4 mm 1 mps 730 mmHg 84%
13:00 +29°C° 0.4 mm 1 mps 729 mmHg 81%
14:00 +30°C° 0.4 mm 1 mps 728 mmHg 78%
15:00 +31°C° 0.4 mm 1 mps 728 mmHg 74%
16:00 +30°C° 0.8 mm 1 mps 728 mmHg 80%
17:00 +28°C° 0.8 mm 1 mps 728 mmHg 86%
18:00 +27°C° 0.8 mm 1 mps 728 mmHg 91%
19:00 +27°C° 1.2 mm 1 mps 728 mmHg 93%
20:00 +26°C° 1.2 mm 1 mps 729 mmHg 94%
21:00 +25°C° 1.2 mm 1 mps 729 mmHg 96%
22:00 +25°C° 0.6 mm 2 mps 729 mmHg 95%
23:00 +25°C° 0.6 mm 2 mps 729 mmHg 94%

10 August, Monday

Time Temperature Precipitation Wind Pressure Humidity
00:00 +25°C° 0.6 mm 3 mps 729 mmHg 94%
01:00 +25°C° 0.1 mm 2 mps 729 mmHg 92%
02:00 +25°C° 0.1 mm 2 mps 728 mmHg 91%
03:00 +25°C° 0.1 mm 2 mps 728 mmHg 90%
04:00 +25°C° 0 mm 2 mps 728 mmHg 88%
05:00 +25°C° 0 mm 2 mps 728 mmHg 86%
06:00 +25°C° 0 mm 2 mps 728 mmHg 85%
07:00 +26°C° 0 mm 1 mps 729 mmHg 82%
08:00 +27°C° 0 mm 1 mps 729 mmHg 79%
09:00 +29°C° 0 mm 1 mps 729 mmHg 76%
10:00 +29°C° 0.3 mm 1 mps 729 mmHg 76%
11:00 +30°C° 0.3 mm 1 mps 729 mmHg 75%
12:00 +31°C° 0.3 mm 1 mps 728 mmHg 75%
13:00 +30°C° 0.4 mm 1 mps 728 mmHg 77%
14:00 +30°C° 0.4 mm 1 mps 727 mmHg 78%
15:00 +30°C° 0.4 mm 1 mps 727 mmHg 80%
16:00 +29°C° 0.8 mm 1 mps 727 mmHg 84%
17:00 +28°C° 0.8 mm 1 mps 727 mmHg 88%
18:00 +27°C° 0.8 mm 1 mps 727 mmHg 92%
19:00 +27°C° 1 mm 1 mps 728 mmHg 93%
20:00 +26°C° 1 mm 1 mps 728 mmHg 93%
21:00 +26°C° 1 mm 1 mps 729 mmHg 94%
22:00 +25°C° 0.1 mm 1 mps 729 mmHg 93%
23:00 +25°C° 0.1 mm 2 mps 728 mmHg 93%

11 August, Tuesday

Time Temperature Precipitation Wind Pressure Humidity
00:00 +25°C° 0.1 mm 2 mps 728 mmHg 92%
01:00 +25°C° 0 mm 2 mps 728 mmHg 89%
02:00 +25°C° 0 mm 2 mps 727 mmHg 87%
03:00 +25°C° 0 mm 2 mps 727 mmHg 84%
04:00 +25°C° 0 mm 2 mps 727 mmHg 82%
05:00 +25°C° 0 mm 2 mps 727 mmHg 80%
06:00 +25°C° 0 mm 1 mps 727 mmHg 79%
07:00 +26°C° 0 mm 1 mps 728 mmHg 78%
08:00 +27°C° 0 mm 1 mps 728 mmHg 78%
09:00 +28°C° 0 mm 1 mps 728 mmHg 78%
10:00 +28°C° 0.1 mm 1 mps 728 mmHg 78%
11:00 +29°C° 0.1 mm 1 mps 728 mmHg 77%
12:00 +29°C° 0.1 mm 1 mps 728 mmHg 77%
13:00 +29°C° 0.4 mm 1 mps 727 mmHg 78%
14:00 +29°C° 0.4 mm 1 mps 727 mmHg 78%
15:00 +30°C° 0.4 mm 1 mps 726 mmHg 79%
16:00 +28°C° 0.7 mm 1 mps 727 mmHg 83%
17:00 +27°C° 0.7 mm 1 mps 727 mmHg 87%
18:00 +26°C° 0.7 mm 1 mps 727 mmHg 91%
19:00 +26°C° 0.3 mm 1 mps 727 mmHg 92%
20:00 +25°C° 0.3 mm 2 mps 728 mmHg 92%
21:00 +25°C° 0.3 mm 2 mps 728 mmHg 92%
22:00 +25°C° 0.1 mm 2 mps 728 mmHg 90%
23:00 +25°C° 0.1 mm 2 mps 728 mmHg 88%
Show more